Location: ????????
(55.4000°N, 39.1167°E)
Time: 04:01:50
(UTC+00:00)

Cosmos 2061 Rocket - Pass Details

Date: 19 May 2025
Orbit: 965 x 1012 km, 82.9° (Epoch: 19 June)

Event Time Altitude Azimuth Distance (km) Brightness Sun altitude
Rises 22:03:51 0° 348° (NNW) 3,761 8.4 -14.1°
Reaches altitude 10° 22:06:26 10° 351° (N) 2,805 7.6 -14.0°
Maximum altitude 22:12:53 71° 76° (ENE) 1,063 4.3 -13.8°
Enters shadow 22:18:51 12° 160° (SSE) 2,623 5.8 -13.6°
